DateTimeUTC,F1_A11,F1_S11,BsB_S11,BsG_S11,BsR_S11,BbsB_S11,BbsG_S11,BbsR_S11,BaB_A11,BaG_A11,BaR_A11,Tu_S11,T_S11,Uu_S11,U_S11,P_S11,T1_A11
2021-10-18T00:00:00Z,00000200,21000000,,,,,,,0000.04,0000.14,-000.11,16.8,23.9,,00.0,0669.6,30.9
2021-10-18T00:01:00Z,00000200,21000000,,,,,,,-000.17,-000.07,0000.42,16.8,23.9,,00.0,0669.6,30.9
2021-10-18T00:02:00Z,00000200,21000000,,,,,,,0000.37,0000.25,-000.12,16.7,23.9,,00.0,0669.6,30.9
2021-10-18T00:03:00Z,00000200,61000000,,,,,,,0150.10,0138.71,0110.40,16.7,23.9,,00.0,0669.6,30.9
2021-10-18T00:04:00Z,00000200,41000000,0010.53,0008.04,0004.56,0002.91,0002.10,0001.37,0160.62,0149.66,0121.11,17.0,23.7,,00.0,0670.4,30.9
2021-10-18T00:05:00Z,00000200,01000000,0001.06,0000.93,0000.21,0000.80,0000.58,0000.06,0010.41,0009.79,0008.10,17.1,23.7,,00.0,0670.5,30.9
2021-10-18T00:06:00Z,00000200,01000000,0001.32,0000.53,0000.38,0000.34,0000.49,-000.17,0003.28,0002.90,0002.31,17.1,23.7,,00.0,0670.5,31.0
2021-10-18T00:07:00Z,00000200,01000000,0000.24,0000.81,0000.37,0000.44,0000.04,0000.14,0001.40,0001.52,0001.26,17.1,23.7,,00.0,0670.5,30.9
2021-10-18T00:08:00Z,00000200,01000000,0000.19,0000.47,-000.08,-000.18,0000.14,0000.00,0001.22,0000.95,0000.62,17.1,23.7,,00.0,0670.5,30.9
2021-10-18T00:09:00Z,00000200,01000000,0001.64,0001.04,0000.41,0000.23,0000.29,0000.08,0000.89,0001.15,0000.91,17.2,23.7,,00.0,0670.5,30.9
2021-10-18T00:10:00Z,00000200,01000000,0003.26,0002.42,0001.42,0000.57,0000.75,0000.45,0001.17,0000.70,0000.68,17.2,23.8,,00.0,0670.5,30.9
2021-10-18T00:11:00Z,00000200,01000000,0003.77,0003.18,0001.63,0000.52,0000.55,0000.12,0000.75,0000.97,0000.69,17.2,23.8,,00.0,0670.5,30.9
2021-10-18T00:12:00Z,00000200,01000000,0003.68,0002.24,0001.82,-000.36,0000.26,0000.32,0000.92,0000.67,0000.08,17.2,23.8,,00.0,0670.5,30.9
2021-10-18T00:13:00Z,00000200,01000000,0003.80,0002.89,0001.67,0000.77,0000.47,0000.27,0000.86,0000.68,0000.69,17.1,23.7,,00.0,0670.5,30.9
2021-10-18T00:14:00Z,00000200,01000000,0003.67,0003.28,0001.60,0000.24,0000.25,0000.42,0000.71,0000.78,0000.43,17.0,23.7,,00.0,0670.4,30.9
2021-10-18T00:15:00Z,00000200,01000000,0002.65,0002.70,0001.56,0000.41,0000.58,0000.33,0000.99,0000.70,0000.82,17.0,23.7,,00.0,0670.4,30.9
2021-10-18T00:16:00Z,00000200,01000000,0003.32,0002.34,0001.66,0000.09,0000.54,0000.31,0000.72,0001.01,0000.57,17.0,23.6,,00.0,0670.4,30.9
2021-10-18T00:17:00Z,00000200,01000000,0003.25,0001.88,0001.29,0000.65,0000.43,0000.11,0000.75,0000.44,0000.42,17.0,23.6,,00.0,0670.3,30.9
2021-10-18T00:18:00Z,00000200,01000000,0004.03,0002.75,0001.26,0000.56,0000.56,0000.40,0000.86,0000.95,0000.47,17.0,23.6,,00.0,0670.3,30.9
2021-10-18T00:19:00Z,00000200,01000000,0003.43,0002.84,0001.33,0000.83,0000.25,0000.32,0000.91,0000.87,0000.87,17.0,23.6,,00.0,0670.3,30.9
2021-10-18T00:20:00Z,00000200,01000000,0004.06,0002.46,0001.57,-000.05,0000.57,0000.18,0000.88,0000.72,0000.46,17.0,23.6,,00.0,0670.3,30.9
2021-10-18T00:21:00Z,00000200,01000000,0002.98,0002.72,0001.50,0000.68,0000.58,-000.01,0000.95,0000.68,0000.66,17.0,23.7,,00.0,0670.3,30.9
2021-10-18T00:22:00Z,00000200,01000000,0003.28,0002.28,0001.62,0000.78,0000.45,-000.00,0000.77,0000.55,0000.54,17.1,23.7,,00.0,0670.3,30.9
2021-10-18T00:23:00Z,00000200,01000000,0003.80,0002.83,0001.13,-000.68,0000.59,0000.13,0000.64,0000.75,0000.58,17.1,23.7,,00.0,0670.3,30.9
2021-10-18T00:24:00Z,00000200,01000000,0002.20,0002.36,0001.29,0000.38,0000.24,0000.12,0000.88,0000.99,0000.15,17.1,23.7,,00.0,0670.3,30.9
2021-10-18T00:25:00Z,00000200,01000000,0003.14,0002.21,0001.05,0000.15,0000.42,-000.25,0000.47,0000.53,0000.49,17.1,23.7,,00.0,0670.3,30.9
2021-10-18T00:26:00Z,00000200,01000000,0003.54,0002.66,0001.51,0000.36,0000.63,0000.26,0001.05,0000.73,0000.63,17.1,23.7,,00.0,0670.3,30.9
2021-10-18T00:27:00Z,00000200,01000000,0003.27,0002.44,0001.92,0000.07,0000.49,0000.31,0000.39,0000.49,0000.38,17.1,23.7,,00.0,0670.3,30.9
2021-10-18T00:28:00Z,00000200,01000000,0002.95,0002.04,0001.38,0000.90,0000.69,0000.07,0000.62,0000.51,0000.70,17.1,23.7,,00.0,0670.3,30.9
2021-10-18T00:29:00Z,00000200,01000000,0003.07,0002.82,0001.22,0000.74,0000.64,-000.16,0000.92,0000.70,0000.65,17.1,23.7,,00.0,0670.3,30.9
2021-10-18T00:30:00Z,00000200,01000000,0003.51,0002.65,0001.58,0000.47,0000.77,0000.25,0000.79,0000.64,0000.21,17.1,23.7,,00.0,0670.3,30.9
2021-10-18T00:31:00Z,00000200,01000000,0003.33,0002.54,0001.46,0000.28,0000.58,0000.21,0000.45,0000.59,0000.49,17.0,23.6,,00.0,0670.3,30.9
2021-10-18T00:32:00Z,00000200,01000000,0003.27,0002.53,0001.76,0000.28,0000.56,0000.20,0001.22,0000.50,0000.57,17.1,23.6,,00.0,0670.3,30.9
2021-10-18T00:33:00Z,00000200,01000000,0003.03,0002.23,0001.39,-000.08,0000.39,0000.44,0000.84,0000.76,0000.38,17.1,23.7,,00.0,0670.3,30.9
2021-10-18T00:34:00Z,00000200,01000000,0002.92,0002.61,0001.58,0000.69,0000.38,0000.08,0000.68,0000.67,0000.83,17.1,23.7,,00.0,0670.3,30.9
2021-10-18T00:35:00Z,00000200,01000000,0003.21,0002.49,0001.23,0000.61,0000.24,0000.39,0000.91,0001.05,0000.45,17.1,23.7,,00.0,0670.3,30.9
2021-10-18T00:36:00Z,00000200,01000000,0002.75,0001.97,0000.80,-000.02,0000.46,0000.01,0000.66,0000.51,0000.37,17.1,23.7,,00.0,0670.2,31.0
2021-10-18T00:37:00Z,00000200,01000000,0002.00,0002.04,0001.13,0000.04,0000.49,-000.01,0000.37,0000.61,0000.53,17.2,23.7,,00.0,0670.2,30.9
2021-10-18T00:38:00Z,00000200,01000000,0002.28,0001.77,0000.89,0000.05,0000.66,0000.44,0000.72,0000.42,0000.08,17.2,23.7,,00.0,0670.3,30.9
2021-10-18T00:39:00Z,00000200,01000000,0002.57,0001.83,0001.19,0000.47,0000.72,0000.17,0000.42,0000.56,0000.37,17.2,23.8,,00.0,0670.3,30.9
2021-10-18T00:40:00Z,00000200,01000000,0002.49,0001.78,0000.79,0000.11,0000.47,0000.30,0000.47,0000.57,0000.43,17.2,23.8,,00.0,0670.3,30.9
2021-10-18T00:41:00Z,00000200,01000000,0002.55,0002.31,0001.07,0000.28,0000.36,0000.08,0000.65,0000.55,0000.43,17.2,23.8,,00.0,0670.3,30.9
2021-10-18T00:42:00Z,00000200,01000000,0001.75,0001.52,0000.68,0000.34,0000.35,-000.06,0000.60,0000.64,0000.42,17.2,23.8,,00.0,0670.2,30.9
2021-10-18T00:43:00Z,00000200,01000000,0001.97,0001.70,0001.10,0000.33,0000.45,-000.09,0000.36,0000.01,0000.37,17.1,23.7,,00.0,0670.2,30.9
2021-10-18T00:44:00Z,00000200,01000000,0002.77,0001.51,0000.83,0000.15,0000.29,0000.01,0000.71,0000.61,0000.34,17.1,23.7,,00.0,0670.2,30.9
2021-10-18T00:45:00Z,00000200,01000000,0002.83,0001.39,0001.19,0000.33,0000.23,0000.24,0000.38,0000.25,0000.06,17.0,23.7,,00.0,0670.2,30.9
2021-10-18T00:46:00Z,00000200,01000000,0001.66,0001.74,0000.44,0000.43,0000.52,0000.09,0000.30,0000.39,0000.43,17.0,23.6,,00.0,0670.2,30.9
2021-10-18T00:47:00Z,00000200,01000000,0002.85,0001.92,0001.16,0000.04,0000.65,0000.14,0000.63,0000.54,0000.29,17.0,23.6,,00.0,0670.3,30.9
2021-10-18T00:48:00Z,00000200,01000000,0003.48,0001.61,0000.87,0000.36,0000.32,0000.13,0000.51,0000.47,0000.58,17.1,23.6,,00.0,0670.3,30.9
2021-10-18T00:49:00Z,00000200,01000000,0002.02,0001.48,0001.03,0000.03,0000.34,-000.10,0000.61,0000.34,0000.28,17.1,23.7,,00.0,0670.3,30.9
2021-10-18T00:50:00Z,00000200,01000000,0001.09,0000.66,0000.45,0000.15,0000.14,0000.46,0000.22,0000.44,-000.23,17.1,23.7,,00.0,0670.3,30.9
2021-10-18T00:51:00Z,00000200,01000000,0000.20,0000.09,0000.17,-000.08,0000.40,-000.02,0000.19,-000.01,0000.31,17.1,23.7,,00.0,0670.3,30.9
2021-10-18T00:52:00Z,00000200,01000000,0000.01,0000.33,-000.29,-000.17,0000.38,-000.26,-000.40,-000.01,0000.22,17.2,23.7,,00.0,0670.3,30.9
2021-10-18T00:53:00Z,00000200,01000000,-000.14,0000.27,-000.28,0000.27,0000.63,-000.21,0000.24,0000.16,-000.21,17.2,23.7,,00.0,0670.3,30.9
2021-10-18T00:54:00Z,00000200,01000000,-000.29,0000.09,0000.08,-000.16,0000.37,0000.15,-000.11,-000.19,0000.28,17.2,23.7,,00.0,0670.3,31.0
2021-10-18T00:55:00Z,00000200,01000000,0000.55,0000.30,-000.27,-000.19,0000.03,-000.18,0000.24,0000.00,-000.15,17.2,23.7,,00.0,0670.3,30.9
2021-10-18T00:56:00Z,00000200,01000000,0000.94,0000.13,0000.53,0000.01,0000.14,-000.06,0000.14,0000.39,0000.14,17.2,23.8,,00.0,0670.3,30.9
2021-10-18T00:57:00Z,00000200,41000000,,,,,,,-000.11,0000.32,0000.03,17.3,23.8,,00.0,0670.3,30.9
2021-10-18T00:58:00Z,00000200,61000000,,,,,,,0000.15,-000.34,-000.04,16.9,23.9,,00.0,0669.3,30.9
2021-10-18T00:59:00Z,00000200,21000000,,,,,,,0000.06,0000.12,-000.12,16.9,24.0,,00.0,0669.3,30.9
